Weather History for Colorado City, AZ

Change the Weather History Date:

Friday, January 24, 2014

  Actual Average (KCDC) Record (KCDC)
Temperature  
Mean Temperature 40 °F 30 °F  
Max Temperature 55 °F 42 °F 59 °F (1975)
Min Temperature 25 °F 17 °F -13 °F (1962)
Degree Days  
Heating Degree Days 25 35  
Month to date heating degree days 869  
Since 1 July heating degree days 3431  
Cooling Degree Days 0 0  
Month to date cooling degree days 0  
Year to date cooling degree days 0  
Moisture  
Dew Point 9 °F    
Average Humidity 27    
Maximum Humidity 55    
Minimum Humidity 14    
Precipitation  
Precipitation 0.00 in 0.03 in 0.19 in (1983)
Month to date precipitation 0.67  
Year to date precipitation 0.67  
Sea Level Pressure  
Sea Level Pressure 30.45 in    
Wind  
Wind Speed 9 mph (NE)    
Max Wind Speed 16 mph    
Max Gust Speed 25 mph    
Visibility 10 miles    
Events      
T = Trace of Precipitation, MM = Missing Value Source: NWS Daily Summary

Daily Weather History Graph

Daily Weather History Graph

Search for Another Location

Airport:

Trip Planner

Search our weather history database for the weather conditions in past years. The results will help you decide how hot, cold, wet, or windy it might be!

Date:

Astronomy

Jan. 24, 2014 Rise Set
Actual Time 7:40 AM MST 5:48 PM MST
Civil Twilight 7:12 AM MST 6:16 PM MST
Nautical Twilight 6:40 AM MST 6:47 PM MST
Astronomical Twilight 6:10 AM MST 7:18 PM MST
Moon 1:13 AM MST (1/24) 12:08 PM MST (1/24)
Length of Visible Light 11h 04m
Length of Day
10h 08m
Last Quarter, 44% of the Moon is Illuminated
Jan 24
Last Quarter
Jan 30
New
Feb 6
First Quarter
Feb 14
Full
Feb 22
Last Quarter

Hourly Weather History & Observations

Time (MST) Temp. Windchill Dew Point Humidity Pressure Visibility Wind Dir Wind Speed Gust Speed Precip Events Conditions
12:15 AM 42.1 °F 36.1 °F 11.8 °F 29% 30.42 in 10.0 mi ENE 10.4 mph 23.0 mph N/A   Clear
12:35 AM 41.5 °F 35.9 °F 11.7 °F 30% 30.43 in 10.0 mi ENE 9.2 mph 16.1 mph N/A   Clear
12:55 AM 41.7 °F 36.1 °F 11.3 °F 29% 30.43 in 10.0 mi ENE 9.2 mph 17.3 mph N/A   Clear
1:15 AM 41.7 °F 35.6 °F 11.1 °F 29% 30.43 in 10.0 mi ENE 10.4 mph 23.0 mph N/A   Clear
1:35 AM 41.9 °F 35.9 °F 10.8 °F 28% 30.44 in 10.0 mi ENE 10.4 mph 20.7 mph N/A   Clear
1:55 AM 41.9 °F 34.3 °F 10.4 °F 28% 30.44 in 10.0 mi NE 15.0 mph 21.9 mph N/A   Clear
2:15 AM 42.1 °F 34.5 °F 9.7 °F 27% 30.44 in 10.0 mi NE 15.0 mph 25.3 mph N/A   Clear
2:35 AM 41.9 °F 35.0 °F 8.4 °F 25% 30.45 in 10.0 mi NE 12.7 mph 21.9 mph N/A   Clear
2:55 AM 41.4 °F 33.3 °F 7.7 °F 25% 30.45 in 10.0 mi NE 16.1 mph - N/A   Clear
3:15 AM 41.5 °F 33.8 °F 7.7 °F 25% 30.45 in 10.0 mi NE 15.0 mph 20.7 mph N/A   Clear
3:35 AM 41.4 °F 34.7 °F 7.7 °F 25% 30.45 in 10.0 mi ENE 11.5 mph - N/A   Clear
3:55 AM 41.0 °F 36.4 °F 7.7 °F 25% 30.45 in 10.0 mi ENE 6.9 mph - N/A   Clear
4:15 AM 40.8 °F 35.0 °F 7.5 °F 25% 30.45 in 10.0 mi NE 9.2 mph - N/A   Clear
4:35 AM 40.3 °F 32.6 °F 7.5 °F 26% 30.45 in 10.0 mi ENE 13.8 mph 18.4 mph N/A   Clear
4:55 AM 40.5 °F 33.2 °F 7.3 °F 26% 30.45 in 10.0 mi NE 12.7 mph 19.6 mph N/A   Clear
5:15 AM 40.5 °F 33.2 °F 7.3 °F 26% 30.46 in 10.0 mi NE 12.7 mph 20.7 mph N/A   Clear
5:35 AM 40.3 °F 33.9 °F 7.3 °F 26% 30.47 in 10.0 mi ENE 10.4 mph 20.7 mph N/A   Clear
5:55 AM 39.9 °F 33.4 °F 7.7 °F 26% 30.47 in 10.0 mi ENE 10.4 mph - N/A   Clear
6:15 AM 39.9 °F 33.9 °F 7.7 °F 26% 30.47 in 10.0 mi ENE 9.2 mph - N/A   Clear
6:35 AM 40.1 °F 34.1 °F 7.7 °F 26% 30.48 in 10.0 mi NE 9.2 mph - N/A   Clear
6:55 AM 40.1 °F 33.2 °F 7.3 °F 26% 30.48 in 10.0 mi NE 11.5 mph 18.4 mph N/A   Clear
7:15 AM 40.3 °F 32.6 °F 7.2 °F 25% 30.48 in 10.0 mi NE 13.8 mph 17.3 mph N/A   Clear
7:35 AM 40.5 °F 33.6 °F 6.8 °F 25% 30.48 in 10.0 mi NE 11.5 mph 17.3 mph N/A   Clear
7:55 AM 40.3 °F 32.6 °F 6.8 °F 25% 30.48 in 10.0 mi NE 13.8 mph 17.3 mph N/A   Clear
8:15 AM 41.0 °F 33.1 °F 7.5 °F 25% 30.48 in 10.0 mi NE 15.0 mph 19.6 mph N/A   Clear
8:35 AM 41.5 °F 34.2 °F 7.5 °F 25% 30.48 in 10.0 mi NE 13.8 mph 21.9 mph N/A   Clear
8:55 AM 42.3 °F 36.3 °F 7.2 °F 24% 30.49 in 10.0 mi NE 10.4 mph - N/A   Clear
9:15 AM 43.0 °F 38.2 °F 7.9 °F 24% 30.50 in 10.0 mi NE 8.1 mph - N/A   Clear
9:35 AM 43.5 °F 38.3 °F 8.8 °F 24% 30.50 in 10.0 mi NE 9.2 mph - N/A   Clear
9:55 AM 44.8 °F 41.0 °F 9.3 °F 24% 30.51 in 10.0 mi ENE 6.9 mph - N/A   Clear
10:15 AM 46.4 °F 41.9 °F 10.4 °F 23% 30.51 in 10.0 mi NE 9.2 mph - N/A   Clear
10:35 AM 47.7 °F - 11.1 °F 23% 30.51 in 10.0 mi NNE 9.2 mph - N/A   Clear
10:55 AM 48.6 °F - 11.8 °F 23% 30.51 in 10.0 mi ENE 5.8 mph - N/A   Clear
11:15 AM 49.8 °F - 12.6 °F 23% 30.51 in 10.0 mi ENE 10.4 mph 17.3 mph N/A   Clear
11:35 AM 51.1 °F - 12.9 °F 22% 30.51 in 10.0 mi ENE 11.5 mph - N/A   Clear
11:55 AM 52.3 °F - 12.9 °F 21% 30.50 in 10.0 mi ENE 10.4 mph - N/A   Clear
12:15 PM 53.2 °F - 12.2 °F 20% 30.49 in 10.0 mi ENE 11.5 mph 16.1 mph N/A   Clear
12:35 PM 54.3 °F - 11.3 °F 18% 30.48 in 10.0 mi ENE 10.4 mph - N/A   Clear
12:55 PM 54.9 °F - 10.8 °F 17% 30.47 in 10.0 mi ENE 16.1 mph 19.6 mph N/A   Clear
1:15 PM 55.0 °F - 9.9 °F 17% 30.45 in 10.0 mi ENE 11.5 mph 17.3 mph N/A   Clear
1:35 PM 55.9 °F - 8.4 °F 15% 30.44 in 10.0 mi ESE 5.8 mph - N/A   Clear
1:55 PM 55.9 °F - 8.2 °F 15% 30.43 in 10.0 mi ENE 6.9 mph - N/A   Clear
2:15 PM 55.8 °F - 8.4 °F 15% 30.42 in 10.0 mi NE 5.8 mph - N/A   Clear
2:35 PM 55.6 °F - 8.1 °F 15% 30.42 in 10.0 mi ENE 8.1 mph - N/A   Clear
2:55 PM 55.8 °F - 7.5 °F 15% 30.41 in 10.0 mi ENE 6.9 mph - N/A   Clear
3:15 PM 55.9 °F - 7.3 °F 14% 30.41 in 10.0 mi East 4.6 mph - N/A   Clear
3:35 PM 55.6 °F - 7.2 °F 14% 30.41 in 10.0 mi East 5.8 mph - N/A   Clear
3:55 PM 55.2 °F - 5.9 °F 14% 30.41 in 10.0 mi ENE 8.1 mph - N/A   Clear
4:15 PM 54.5 °F - 5.7 °F 14% 30.40 in 10.0 mi ENE 3.5 mph - N/A   Clear
4:35 PM 54.1 °F - 5.4 °F 14% 30.41 in 10.0 mi NNE 3.5 mph - N/A   Clear
4:55 PM 52.9 °F - 5.2 °F 15% 30.41 in 10.0 mi ENE 3.5 mph - N/A   Clear
5:15 PM 50.4 °F - 7.7 °F 18% 30.40 in 10.0 mi NE 5.8 mph - N/A   Clear
5:35 PM 47.1 °F - 8.6 °F 21% 30.41 in 10.0 mi ENE 8.1 mph - N/A   Clear
5:55 PM 44.4 °F 40.0 °F 9.7 °F 24% 30.41 in 10.0 mi NE 8.1 mph - N/A   Clear
6:15 PM 42.6 °F 39.0 °F 13.3 °F 30% 30.41 in 10.0 mi North 5.8 mph - N/A   Clear
6:35 PM 43.0 °F 41.3 °F 13.8 °F 31% 30.41 in 10.0 mi North 3.5 mph - N/A   Clear
6:55 PM 39.0 °F - 12.4 °F 34% 30.42 in 10.0 mi Calm Calm - N/A   Clear
7:15 PM 34.5 °F - 9.5 °F 35% 30.42 in 10.0 mi Calm Calm - N/A   Clear
7:35 PM 35.1 °F - 9.3 °F 34% 30.42 in 10.0 mi Calm Calm - N/A   Clear
7:55 PM 33.4 °F - 9.7 °F 37% 30.42 in 10.0 mi Calm Calm - N/A   Clear
8:15 PM 33.1 °F - 8.8 °F 36% 30.42 in 10.0 mi Calm Calm - N/A   Clear
8:35 PM 32.9 °F - 8.4 °F 36% 30.42 in 10.0 mi Calm Calm - N/A   Clear
8:55 PM 32.0 °F - 8.2 °F 37% 30.43 in 10.0 mi Calm Calm - N/A   Clear
9:15 PM 31.8 °F - 7.9 °F 37% 30.43 in 10.0 mi Calm Calm - N/A   Clear
9:35 PM 30.6 °F - 8.8 °F 40% 30.43 in 10.0 mi Calm Calm - N/A   Clear
9:55 PM 30.9 °F - 9.3 °F 40% 30.43 in 10.0 mi Calm Calm - N/A   Clear
10:15 PM 30.4 °F - 11.3 °F 45% 30.44 in 10.0 mi Calm Calm - N/A   Clear
10:35 PM 27.0 °F - 11.3 °F 52% 30.44 in 10.0 mi Calm Calm - N/A   Clear
10:55 PM 26.6 °F - 10.9 °F 52% 30.44 in 10.0 mi Calm Calm - N/A   Clear
11:15 PM 25.2 °F - 11.1 °F 55% 30.45 in 10.0 mi Calm Calm - N/A   Clear
11:35 PM 28.6 °F - 10.4 °F 47% 30.44 in 10.0 mi Calm Calm - N/A   Clear
11:55 PM 28.6 °F - 10.6 °F 47% 30.44 in 10.0 mi Calm Calm - N/A   Clear